QPF
0.03 0.04 0.03 0.03 0.02 0.03 0.08 0.10 0.12 0.13 0.12 0.10 0.07 0.05 0.07 0.07 0.05 0.05 0.05 0.04 0.02 0.01 0.01 0.01 0.01 0.01 0.04 0.06 0.08 0.08 0.08 0.07 0.06 0.05 0.05 0.05 0.06 0.06
0.02 0.03 0.04 0.03 0.03 0.03 0.06 0.09 0.11 0.13 0.13 0.10 0.07 0.04 0.05 0.05 0.05 0.04 0.05 0.05 0.03 0.01 0.01 0.01 0.01 0.01 0.01 0.04 0.07 0.08 0.07 0.05 0.04 0.04 0.04 0.04 0.04 0.04
0.02 0.01 0.03 0.03 0.05 0.04 0.04 0.04 0.08 0.11 0.11 0.10 0.07 0.05 0.07 0.06 0.05 0.06 0.06 0.05 0.03 0.02 0.02 0.01 0.01 0.00 0.01 0.02 0.04 0.07 0.07 0.06 0.04 0.03 0.04 0.04 0.03 0.04
0.02 0.03 0.03 0.03 0.03 0.04 0.04 0.04 0.06 0.08 0.10 0.11 0.07 0.04 0.06 0.06 0.06 0.08 0.08 0.06 0.05 0.03 0.03 0.02 0.01 0.01 0.01 0.01 0.03 0.05 0.06 0.05 0.05 0.04 0.03 0.03 0.04 0.03
0.02 0.03 0.03 0.03 0.02 0.02 0.03 0.04 0.04 0.05 0.08 0.10 0.08 0.05 0.05 0.05 0.05 0.05 0.07 0.08 0.06 0.04 0.03 0.02 0.01 0.01 0.02 0.02 0.02 0.03 0.04 0.04 0.04 0.04 0.03 0.02 0.02 0.02
0.00 0.01 0.01 0.02 0.02 0.02 0.03 0.04 0.05 0.06 0.07 0.08 0.08 0.06 0.06 0.05 0.05 0.04 0.04 0.05 0.05 0.04 0.02 0.02 0.01 0.01 0.02 0.02 0.02 0.03 0.04 0.04 0.04 0.03 0.03 0.02 0.02 0.02
0.00 0.00 0.00 0.01 0.01 0.01 0.01 0.02 0.04 0.06 0.07 0.06 0.06 0.06 0.05 0.06 0.05 0.05 0.04 0.04 0.03 0.05 0.04 0.02 0.02 0.01 0.01 0.01 0.01 0.02 0.02 0.03 0.03 0.03 0.03 0.03 0.02 0.02
0.00 0.00 0.00 0.00 0.00 0.00 0.00 0.01 0.02 0.03 0.05 0.06 0.06 0.05 0.04 0.04 0.05 0.05 0.06 0.04 0.02 0.03 0.04 0.04 0.03 0.03 0.02 0.01 0.01 0.01 0.02 0.03 0.03 0.03 0.03 0.03 0.02 0.02
0.00 0.00 0.00 0.00 0.00 0.00 0.00 0.00 0.00 0.00 0.01 0.03 0.05 0.06 0.04 0.03 0.03 0.03 0.04 0.04 0.03 0.02 0.04 0.04 0.04 0.03 0.02 0.02 0.02 0.01 0.01 0.02 0.04 0.04 0.03 0.03 0.03 0.02
0.00 0.00 0.00 0.00 0.00 0.00 0.01 0.01 0.00 0.00 0.00 0.01 0.02 0.04 0.03 0.02 0.03 0.03 0.04 0.04 0.03 0.03 0.04 0.05 0.05 0.04 0.03 0.03 0.03 0.02 0.02 0.02 0.02 0.03 0.04 0.03 0.03 0.02
0.00 0.00 0.00 0.00 0.00 0.00 0.01 0.01 0.00 0.00 0.00 0.01 0.01 0.02 0.02 0.03 0.03 0.04 0.05 0.05 0.05 0.03 0.03 0.04 0.04 0.05 0.04 0.04 0.04 0.03 0.02 0.02 0.02 0.01 0.02 0.03 0.03 0.03
0.00 0.00 0.00 0.00 0.00 0.00 0.00 0.01 0.00 0.00 0.00 0.00 0.01 0.01 0.02 0.02 0.02 0.03 0.05 0.06 0.06 0.05 0.04 0.03 0.04 0.05 0.05 0.04 0.03 0.03 0.02 0.02 0.01 0.01 0.01 0.01 0.02 0.02
0.01 0.00 0.00 0.00 0.00 0.00 0.00 0.01 0.00 0.01 0.01 0.00 0.00 0.01 0.01 0.01 0.02 0.02 0.02 0.05 0.07 0.06 0.04 0.04 0.04 0.05 0.05 0.04 0.03 0.03 0.02 0.02 0.01 0.01 0.01 0.01 0.01 0.01
0.02 0.01 0.01 0.00 0.00 0.00 0.01 0.01 0.00 0.00 0.00 0.01 0.01 0.01 0.01 0.01 0.00 0.01 0.02 0.02 0.03 0.05 0.05 0.04 0.04 0.04 0.04 0.04 0.03 0.03 0.02 0.02 0.01 0.01 0.01 0.01 0.01 0.01
0.02 0.02 0.01 0.01 0.01 0.00 0.01 0.01 0.01 0.00 0.00 0.00 0.00 0.01 0.01 0.01 0.01 0.01 0.01 0.01 0.02 0.02 0.02 0.03 0.03 0.04 0.03 0.03 0.03 0.02 0.02 0.02 0.02 0.02 0.02 0.01 0.01 0.01
0.04 0.03 0.02 0.01 0.01 0.01 0.01 0.01 0.01 0.01 0.00 0.00 0.00 0.00 0.00 0.01 0.01 0.01 0.01 0.01 0.01 0.01 0.01 0.01 0.01 0.02 0.02 0.02 0.02 0.02 0.01 0.01 0.01 0.01 0.01 0.01 0.01 0.01
0.07 0.05 0.03 0.02 0.01 0.01 0.02 0.01 0.01 0.01 0.01 0.00 0.00 0.01 0.01 0.01 0.01 0.01 0.01 0.01 0.01 0.01 0.00 0.00 0.00 0.00 0.01 0.01 0.01 0.02 0.02 0.01 0.01 0.00 0.01 0.01 0.01 0.01
0.08 0.07 0.04 0.03 0.03 0.03 0.03 0.03 0.03 0.02 0.02 0.02 0.02 0.02 0.02 0.02 0.02 0.02 0.01 0.01 0.01 0.01 0.01 0.00 0.00 0.00 0.00 0.00 0.00 0.01 0.01 0.01 0.02 0.01 0.01 0.01 0.01 0.01
0.08 0.07 0.05 0.04 0.03 0.04 0.05 0.06 0.06 0.05 0.05 0.04 0.03 0.03 0.02 0.02 0.02 0.02 0.02 0.02 0.01 0.01 0.01 0.00 0.00 0.00 0.00 0.00 0.00 0.00 0.00 0.00 0.00 0.00 0.00 0.00 0.00 0.00
0.08 0.08 0.07 0.05 0.04 0.05 0.06 0.07 0.08 0.08 0.08 0.07 0.05 0.04 0.03 0.03 0.03 0.03 0.02 0.02 0.02 0.01 0.01 0.00 0.00 0.00 0.00 0.00 0.00 0.00 0.00 0.00 0.00 0.00 0.00 0.00 0.00 0.00
0.08 0.09 0.09 0.08 0.07 0.07 0.08 0.09 0.09 0.09 0.10 0.09 0.08 0.06 0.05 0.03 0.03 0.03 0.03 0.03 0.03 0.02 0.01 0.00 0.00 0.00 0.00 0.00 0.00 0.00 0.00 0.00 0.00 0.00 0.00 0.00 0.00 0.00
0.09 0.09 0.10 0.10 0.09 0.09 0.10 0.11 0.11 0.11 0.11 0.12 0.11 0.09 0.07 0.05 0.03 0.03 0.03 0.03 0.03 0.03 0.02 0.01 0.00 0.00 0.00 0.00 0.00 0.00 0.00 0.00 0.00 0.00 0.00 0.00 0.00 0.00
0.09 0.11 0.12 0.12 0.11 0.10 0.11 0.12 0.12 0.12 0.13 0.14 0.14 0.12 0.09 0.07 0.04 0.03 0.03 0.03 0.03 0.03 0.02 0.01 0.00 0.00 0.00 0.00 0.00 0.00 0.00 0.00 0.00 0.00 0.00 0.00 0.00 0.00
MSLP
1015.05 1015.23 1015.44 1015.65 1015.84 1015.97 1016.04 1016.03 1015.97 1015.87 1015.75 1015.64 1015.56 1015.53 1015.52 1015.56 1015.60 1015.66 1015.72 1015.78 1015.83 1015.87 1015.93 1015.98 1016.05 1016.11 1016.17 1016.22 1016.26 1016.29 1016.31 1016.34 1016.39 1016.45 1016.54 1016.65 1016.77 1016.88
1015.04 1015.19 1015.36 1015.54 1015.71 1015.83 1015.90 1015.93 1015.91 1015.87 1015.81 1015.76 1015.73 1015.72 1015.73 1015.75 1015.78 1015.81 1015.84 1015.88 1015.91 1015.96 1016.02 1016.09 1016.16 1016.24 1016.31 1016.36 1016.39 1016.41 1016.41 1016.42 1016.43 1016.47 1016.52 1016.60 1016.68 1016.77
1015.03 1015.15 1015.29 1015.43 1015.57 1015.68 1015.76 1015.81 1015.84 1015.85 1015.86 1015.87 1015.87 1015.89 1015.90 1015.91 1015.91 1015.91 1015.91 1015.92 1015.94 1015.98 1016.05 1016.13 1016.22 1016.32 1016.40 1016.47 1016.50 1016.52 1016.52 1016.51 1016.51 1016.52 1016.55 1016.60 1016.66 1016.72
1015.01 1015.11 1015.22 1015.33 1015.44 1015.55 1015.64 1015.72 1015.80 1015.86 1015.91 1015.96 1016.01 1016.03 1016.04 1016.03 1016.00 1015.97 1015.93 1015.91 1015.91 1015.95 1016.01 1016.11 1016.22 1016.34 1016.45 1016.53 1016.58 1016.60 1016.60 1016.59 1016.58 1016.58 1016.59 1016.62 1016.65 1016.69
1014.95 1015.04 1015.13 1015.23 1015.33 1015.44 1015.54 1015.65 1015.76 1015.87 1015.97 1016.05 1016.12 1016.15 1016.15 1016.11 1016.05 1015.98 1015.91 1015.85 1015.83 1015.86 1015.93 1016.03 1016.17 1016.31 1016.44 1016.54 1016.61 1016.65 1016.66 1016.64 1016.62 1016.61 1016.60 1016.61 1016.62 1016.64
1014.83 1014.91 1015.00 1015.09 1015.19 1015.30 1015.43 1015.56 1015.71 1015.85 1015.98 1016.09 1016.17 1016.21 1016.19 1016.14 1016.05 1015.94 1015.83 1015.75 1015.71 1015.73 1015.80 1015.91 1016.06 1016.22 1016.37 1016.50 1016.59 1016.64 1016.66 1016.65 1016.62 1016.59 1016.57 1016.55 1016.54 1016.53
1014.61 1014.70 1014.79 1014.88 1014.99 1015.11 1015.25 1015.41 1015.57 1015.75 1015.90 1016.04 1016.13 1016.16 1016.14 1016.07 1015.97 1015.84 1015.71 1015.62 1015.57 1015.57 1015.64 1015.76 1015.92 1016.09 1016.26 1016.40 1016.51 1016.58 1016.61 1016.60 1016.57 1016.53 1016.48 1016.44 1016.40 1016.36
1014.31 1014.39 1014.48 1014.57 1014.68 1014.80 1014.95 1015.12 1015.31 1015.50 1015.68 1015.82 1015.93 1015.98 1015.97 1015.90 1015.80 1015.67 1015.54 1015.44 1015.39 1015.40 1015.47 1015.59 1015.75 1015.93 1016.11 1016.26 1016.38 1016.46 1016.50 1016.50 1016.47 1016.42 1016.36 1016.29 1016.22 1016.15
1013.93 1014.01 1014.08 1014.16 1014.25 1014.37 1014.51 1014.68 1014.87 1015.07 1015.26 1015.43 1015.55 1015.62 1015.64 1015.60 1015.52 1015.42 1015.32 1015.24 1015.20 1015.21 1015.28 1015.40 1015.56 1015.74 1015.91 1016.07 1016.20 1016.29 1016.34 1016.35 1016.33 1016.28 1016.21 1016.13 1016.04 1015.96
1013.54 1013.58 1013.62 1013.66 1013.72 1013.80 1013.92 1014.07 1014.25 1014.44 1014.64 1014.82 1014.98 1015.08 1015.14 1015.16 1015.13 1015.08 1015.02 1014.98 1014.97 1015.00 1015.08 1015.20 1015.35 1015.51 1015.68 1015.84 1015.97 1016.07 1016.13 1016.16 1016.16 1016.12 1016.07 1015.99 1015.91 1015.81
1013.18 1013.16 1013.14 1013.12 1013.12 1013.16 1013.22 1013.33 1013.48 1013.65 1013.84 1014.04 1014.22 1014.37 1014.49 1014.57 1014.62 1014.64 1014.65 1014.67 1014.70 1014.76 1014.85 1014.96 1015.10 1015.25 1015.41 1015.55 1015.68 1015.79 1015.87 1015.93 1015.96 1015.96 1015.94 1015.90 1015.83 1015.75
1012.91 1012.81 1012.71 1012.61 1012.52 1012.48 1012.47 1012.52 1012.61 1012.75 1012.92 1013.12 1013.32 1013.52 1013.70 1013.85 1013.98 1014.09 1014.19 1014.27 1014.36 1014.46 1014.57 1014.69 1014.81 1014.95 1015.08 1015.22 1015.34 1015.46 1015.57 1015.66 1015.74 1015.79 1015.83 1015.84 1015.82 1015.78
1012.76 1012.56 1012.36 1012.16 1011.97 1011.83 1011.73 1011.69 1011.72 1011.80 1011.94 1012.12 1012.33 1012.56 1012.79 1013.01 1013.22 1013.42 1013.60 1013.77 1013.93 1014.07 1014.21 1014.34 1014.47 1014.59 1014.72 1014.84 1014.96 1015.09 1015.23 1015.36 1015.49 1015.61 1015.71 1015.79 1015.85 1015.87
1012.71 1012.42 1012.11 1011.80 1011.51 1011.26 1011.06 1010.92 1010.86 1010.87 1010.94 1011.08 1011.27 1011.51 1011.77 1012.04 1012.33 1012.60 1012.87 1013.12 1013.35 1013.56 1013.75 1013.91 1014.06 1014.19 1014.31 1014.43 1014.56 1014.70 1014.86 1015.03 1015.22 1015.40 1015.58 1015.74 1015.87 1015.97
1012.73 1012.35 1011.94 1011.53 1011.14 1010.78 1010.48 1010.24 1010.07 1009.98 1009.97 1010.05 1010.19 1010.40 1010.65 1010.95 1011.28 1011.62 1011.96 1012.30 1012.61 1012.90 1013.15 1013.37 1013.56 1013.72 1013.87 1014.00 1014.15 1014.31 1014.49 1014.70 1014.92 1015.17 1015.41 1015.65 1015.86 1016.04
1012.76 1012.30 1011.82 1011.33 1010.85 1010.40 1010.00 1009.65 1009.37 1009.17 1009.05 1009.02 1009.08 1009.22 1009.44 1009.72 1010.06 1010.44 1010.84 1011.26 1011.66 1012.05 1012.40 1012.71 1012.97 1013.20 1013.40 1013.57 1013.75 1013.93 1014.13 1014.37 1014.63 1014.91 1015.20 1015.50 1015.77 1016.02
1012.72 1012.22 1011.69 1011.15 1010.61 1010.09 1009.59 1009.14 1008.75 1008.43 1008.18 1008.03 1007.96 1008.00 1008.13 1008.36 1008.67 1009.06 1009.51 1009.99 1010.49 1010.99 1011.46 1011.89 1012.28 1012.61 1012.89 1013.14 1013.36 1013.58 1013.81 1014.06 1014.34 1014.64 1014.96 1015.29 1015.60 1015.90
1012.55 1012.05 1011.51 1010.95 1010.37 1009.80 1009.24 1008.71 1008.21 1007.76 1007.37 1007.06 1006.85 1006.74 1006.75 1006.88 1007.13 1007.49 1007.96 1008.50 1009.10 1009.72 1010.33 1010.92 1011.45 1011.92 1012.33 1012.68 1012.98 1013.26 1013.52 1013.78 1014.06 1014.37 1014.69 1015.02 1015.36 1015.68
1012.23 1011.75 1011.23 1010.68 1010.11 1009.52 1008.92 1008.31 1007.72 1007.15 1006.62 1006.15 1005.76 1005.49 1005.34 1005.34 1005.49 1005.80 1006.26 1006.84 1007.52 1008.26 1009.02 1009.78 1010.49 1011.13 1011.70 1012.18 1012.58 1012.93 1013.23 1013.52 1013.80 1014.09 1014.40 1014.73 1015.06 1015.39
1011.76 1011.33 1010.85 1010.34 1009.80 1009.21 1008.60 1007.95 1007.29 1006.61 1005.95 1005.32 1004.76 1004.30 1003.98 1003.82 1003.85 1004.07 1004.49 1005.08 1005.82 1006.67 1007.57 1008.49 1009.39 1010.21 1010.95 1011.58 1012.11 1012.55 1012.92 1013.24 1013.53 1013.82 1014.11 1014.42 1014.74 1015.06
1011.16 1010.79 1010.37 1009.93 1009.43 1008.89 1008.28 1007.62 1006.91 1006.16 1005.38 1004.61 1003.89 1003.26 1002.76 1002.43 1002.31 1002.42 1002.77 1003.33 1004.10 1005.02 1006.04 1007.10 1008.16 1009.17 1010.08 1010.87 1011.54 1012.08 1012.53 1012.90 1013.22 1013.52 1013.81 1014.10 1014.41 1014.72
1010.46 1010.16 1009.82 1009.44 1009.01 1008.52 1007.96 1007.32 1006.59 1005.80 1004.94 1004.06 1003.20 1002.41 1001.75 1001.26 1000.98 1000.96 1001.21 1001.71 1002.46 1003.41 1004.50 1005.67 1006.86 1008.01 1009.08 1010.02 1010.83 1011.49 1012.03 1012.48 1012.84 1013.17 1013.47 1013.77 1014.08 1014.39
1009.70 1009.45 1009.18 1008.88 1008.53 1008.11 1007.61 1007.01 1006.31 1005.51 1004.62 1003.68 1002.72 1001.81 1001.01 1000.37 999.95 999.79 999.91 1000.33 1001.02 1001.94 1003.05 1004.27 1005.54 1006.79 1007.98 1009.05 1009.98 1010.76 1011.41 1011.93 1012.37 1012.75 1013.09 1013.42 1013.74 1014.06
Thickness
5687 5686 5684 5685 5685 5686 5686 5685 5680 5678 5681 5689 5694 5700 5704 5707 5709 5711 5714 5716 5718 5720 5722 5723 5725 5726 5728 5729 5731 5732 5732 5732 5732 5732 5733 5733 5733 5733
5688 5686 5685 5685 5685 5686 5686 5686 5685 5682 5681 5687 5692 5697 5701 5704 5706 5708 5711 5712 5714 5717 5718 5719 5721 5722 5724 5725 5726 5727 5727 5728 5728 5728 5729 5729 5729 5729
5689 5687 5686 5686 5684 5684 5685 5685 5685 5684 5681 5685 5691 5695 5698 5700 5702 5705 5707 5709 5711 5713 5714 5716 5717 5718 5719 5720 5721 5722 5722 5723 5723 5723 5723 5723 5724 5724
5688 5688 5686 5686 5684 5684 5683 5683 5684 5685 5683 5682 5686 5691 5694 5697 5699 5701 5704 5706 5707 5709 5710 5711 5712 5713 5714 5715 5716 5717 5717 5717 5718 5717 5718 5718 5718 5719
5689 5688 5686 5685 5683 5683 5682 5682 5683 5685 5684 5683 5683 5687 5690 5693 5694 5697 5699 5701 5703 5704 5705 5706 5707 5707 5708 5709 5710 5711 5711 5712 5712 5712 5712 5712 5713 5713
5691 5689 5687 5686 5683 5682 5681 5681 5681 5681 5682 5681 5681 5683 5685 5689 5690 5689 5691 5694 5697 5700 5700 5701 5701 5702 5703 5703 5704 5705 5705 5706 5706 5706 5706 5706 5707 5707
5691 5690 5689 5687 5685 5683 5681 5679 5679 5678 5677 5677 5677 5678 5679 5681 5683 5685 5685 5688 5690 5694 5694 5695 5695 5695 5696 5697 5697 5698 5699 5699 5699 5700 5700 5700 5701 5701
5688 5688 5688 5686 5684 5682 5680 5678 5677 5675 5674 5674 5674 5674 5677 5679 5680 5681 5680 5680 5680 5687 5687 5688 5690 5689 5690 5691 5691 5692 5692 5692 5693 5693 5693 5694 5694 5695
5685 5685 5686 5686 5683 5680 5678 5677 5675 5674 5674 5672 5672 5673 5676 5678 5678 5677 5677 5676 5677 5681 5681 5680 5683 5684 5685 5685 5685 5685 5685 5685 5686 5686 5686 5687 5687 5688
5682 5682 5682 5682 5681 5678 5675 5673 5672 5672 5672 5672 5672 5674 5675 5676 5676 5675 5675 5674 5676 5677 5678 5674 5676 5677 5678 5678 5679 5679 5679 5679 5679 5679 5679 5679 5680 5681
5678 5679 5679 5678 5678 5676 5672 5669 5668 5669 5670 5670 5670 5671 5671 5672 5672 5670 5669 5667 5665 5668 5672 5670 5671 5671 5670 5670 5671 5672 5672 5672 5671 5671 5671 5672 5672 5673
5670 5673 5674 5674 5674 5672 5668 5666 5663 5664 5665 5664 5664 5664 5665 5666 5666 5665 5664 5662 5661 5661 5666 5666 5665 5665 5662 5663 5664 5663 5664 5664 5664 5663 5663 5664 5664 5665
5657 5662 5665 5666 5666 5665 5664 5662 5662 5661 5660 5660 5659 5659 5659 5660 5660 5660 5661 5660 5658 5658 5662 5662 5660 5660 5658 5657 5657 5657 5657 5657 5656 5655 5655 5656 5656 5657
5644 5649 5654 5656 5656 5656 5656 5657 5657 5655 5653 5653 5652 5653 5653 5654 5655 5655 5656 5656 5656 5656 5657 5657 5655 5654 5652 5650 5650 5651 5651 5651 5651 5649 5649 5649 5648 5648
5631 5636 5639 5642 5644 5646 5647 5648 5647 5646 5645 5645 5645 5647 5649 5651 5651 5650 5650 5650 5650 5650 5650 5651 5650 5649 5647 5645 5645 5644 5644 5644 5645 5644 5643 5642 5641 5641
5616 5621 5626 5630 5632 5634 5637 5638 5638 5638 5638 5639 5640 5642 5643 5644 5643 5643 5641 5640 5639 5640 5642 5643 5643 5642 5640 5640 5639 5638 5638 5637 5637 5637 5636 5635 5635 5634
5599 5604 5610 5615 5618 5622 5625 5628 5629 5630 5631 5632 5633 5634 5635 5636 5636 5636 5635 5633 5632 5631 5631 5633 5634 5634 5633 5632 5631 5631 5631 5630 5631 5630 5628 5626 5626 5626
5584 5589 5595 5601 5605 5609 5613 5616 5618 5621 5623 5624 5625 5626 5627 5627 5628 5628 5628 5627 5626 5626 5625 5624 5624 5622 5621 5622 5624 5624 5623 5623 5623 5622 5621 5617 5615 5616
5570 5576 5581 5586 5591 5595 5599 5603 5607 5611 5614 5616 5617 5619 5619 5620 5620 5620 5621 5621 5620 5620 5620 5619 5617 5615 5612 5613 5614 5616 5616 5615 5614 5613 5612 5610 5607 5607
5557 5562 5566 5571 5576 5580 5585 5589 5594 5599 5602 5606 5609 5611 5612 5613 5613 5614 5614 5614 5614 5614 5613 5613 5613 5613 5611 5610 5607 5606 5608 5607 5605 5603 5602 5601 5599 5599
5543 5546 5551 5556 5561 5566 5571 5575 5580 5585 5590 5594 5599 5602 5604 5606 5606 5607 5607 5607 5607 5607 5607 5607 5608 5608 5606 5603 5599 5597 5597 5599 5600 5597 5594 5590 5588 5587
5528 5531 5535 5540 5545 5551 5556 5561 5566 5571 5577 5582 5587 5591 5594 5597 5599 5600 5600 5599 5600 5601 5601 5599 5598 5597 5597 5595 5593 5591 5588 5587 5587 5588 5587 5586 5582 5579
5514 5516 5520 5524 5530 5536 5541 5546 5552 5558 5564 5568 5574 5579 5583 5587 5591 5593 5593 5593 5592 5592 5591 5589 5588 5588 5589 5589 5586 5583 5582 5579 5577 5575 5575 5577 5576 5575